Minot AFB, ND

4:50 PM CST on February 21, 2017 (GMT -0600)
Minot Air Force Base

Weather History for KMIB - June, 2014

Change the Weather History Date:

Wednesday, June 4, 2014

  Actual Average Record
Temperature  
Mean Temperature 64 °F -  
Max Temperature 78 °F 69 °F 89 °F (1997)
Min Temperature 51 °F 49 °F 37 °F (1998)
Degree Days  
Heating Degree Days 2    
Growing Degree Days 14 (Base 50)    
Moisture  
Dew Point 55 °F    
Average Humidity 89    
Maximum Humidity 100    
Minimum Humidity 49    
Precipitation  
Precipitation 0.01 in - - ()
Sea Level Pressure  
Sea Level Pressure 29.83 in    
Wind  
Wind Speed 5 mph (South)    
Max Wind Speed 21 mph    
Max Gust Speed 30 mph    
Visibility 8 miles    
Events Thunderstorm    
Averages and records for this station are not official NWS values.
T = Trace of Precipitation, MM = Missing Value Source: NWS Daily Summary

Daily Weather History Graph

Daily Weather History Graph

Search for Another Location

Airport or City:

Trip Planner

Search our weather history database for the weather conditions in past years. The results will help you decide how hot, cold, wet, or windy it might be!

Date:

Astronomy

Jun. 04, 2014 Rise Set
Actual Time 5:46 AM CDT 9:41 PM CDT
Civil Twilight 5:05 AM CDT 10:22 PM CDT
Nautical Twilight 4:09 AM CDT 11:18 PM CDT
Astronomical Twilight 2:40 AM CDT 12:49 AM CDT
Moon 12:30 PM CDT (6/4) 1:20 AM CDT (6/4)
Length of Visible Light 17h 16m
Length of Day
15h 54m
Waxing Crescent, 39% of the Moon is Illuminated
Jun 4
Waxing Crescent
Jun 5
First Quarter
Jun 12
Full
Jun 19
Last Quarter
Jun 27
New

Hourly Weather History & Observations

Time (CDT) Temp. Dew Point Humidity Pressure Visibility Wind Dir Wind Speed Gust Speed Precip Events Conditions
12:03 AM 55.4 °F 55.4 °F 100% 29.85 in 5.0 mi SW 2.3 mph - N/A   Clear
12:08 AM 55.4 °F 55.4 °F 100% 29.85 in 7.0 mi SW 2.3 mph - N/A   Clear
12:23 AM 55.4 °F 55.4 °F 100% 29.85 in 10.0 mi South 3.5 mph - N/A   Clear
12:58 AM 55.9 °F 55.8 °F 99% 29.89 in 10.0 mi South 3.5 mph - N/A   Clear
1:58 AM 54.9 °F 54.9 °F 100% 29.88 in 10.0 mi South 3.5 mph - N/A   Clear
2:13 AM 51.8 °F 51.8 °F 100% 29.87 in 8.0 mi SSW 2.3 mph - N/A   Clear
2:23 AM 51.8 °F 51.8 °F 100% 29.87 in 7.0 mi Calm Calm - N/A   Clear
2:28 AM 51.8 °F 51.8 °F 100% 29.86 in 7.0 mi Calm Calm - N/A   Clear
2:53 AM 51.8 °F 51.8 °F 100% 29.86 in 6.0 mi Calm Calm - N/A   Clear
2:58 AM 51.8 °F 51.8 °F 100% 29.88 in 6.0 mi Calm Calm - N/A   Clear
3:08 AM 51.8 °F 51.8 °F 100% 29.86 in 1.2 mi ESE 1.2 mph - N/A   Clear
3:13 AM 51.8 °F 51.8 °F 100% 29.86 in 6.0 mi South 1.2 mph - N/A   Clear
3:18 AM 51.8 °F 51.8 °F 100% 29.86 in 1.2 mi South 4.6 mph - N/A   Clear
3:23 AM 51.8 °F 51.8 °F 100% 29.86 in 3.0 mi South 4.6 mph - N/A   Clear
3:33 AM 53.6 °F 53.6 °F 100% 29.86 in 7.0 mi South 5.8 mph - N/A   Clear
3:43 AM 55.4 °F 55.4 °F 100% 29.86 in 10.0 mi South 5.8 mph - N/A   Clear
3:58 AM 54.3 °F 54.3 °F 100% 29.88 in 10.0 mi South 5.8 mph - N/A   Clear
4:13 AM 53.6 °F 53.6 °F 100% 29.85 in 8.0 mi SSE 4.6 mph - N/A   Clear
4:18 AM 53.6 °F 53.6 °F 100% 29.85 in 6.0 mi SSE 4.6 mph - N/A   Clear
4:48 AM 51.8 °F 51.8 °F 100% 29.85 in 10.0 mi SSE 6.9 mph - N/A   Clear
4:58 AM 51.3 °F 51.3 °F 100% 29.86 in 8.0 mi SE 6.9 mph - N/A   Clear
5:08 AM 51.8 °F 51.8 °F 100% 29.85 in 10.0 mi SE 6.9 mph - N/A   Clear
5:58 AM 52.2 °F 52.2 °F 100% 29.86 in 10.0 mi SE 5.8 mph - N/A   Clear
6:58 AM 55.8 °F 55.8 °F 100% 29.86 in 10.0 mi SE 5.8 mph - N/A   Clear
7:58 AM 59.4 °F 59.4 °F 100% 29.85 in 10.0 mi SE 5.8 mph - N/A   Mostly Cloudy
8:58 AM 61.3 °F 61.0 °F 99% 29.86 in 10.0 mi SSW 8.1 mph - N/A   Mostly Cloudy
9:58 AM 62.6 °F 60.4 °F 93% 29.86 in 10.0 mi SW 12.7 mph 21.9 mph N/A   Overcast
10:58 AM 62.2 °F 62.1 °F 99% 29.86 in 10.0 mi SSE 8.1 mph - 0.01 in   Mostly Cloudy
11:58 AM 65.5 °F 63.0 °F 92% 29.86 in 10.0 mi SSE 10.4 mph - N/A   Partly Cloudy
12:58 PM 70.9 °F 59.7 °F 68% 29.83 in 10.0 mi SSW 19.6 mph - N/A   Scattered Clouds
1:58 PM 74.8 °F 56.8 °F 53% 29.80 in 10.0 mi SSW 18.4 mph - N/A   Scattered Clouds
2:58 PM 76.5 °F 57.6 °F 52% 29.77 in 10.0 mi SSW 20.7 mph 29.9 mph N/A   Scattered Clouds
4:58 PM 75.9 °F 55.6 °F 49% 29.73 in 10.0 mi SW 13.8 mph - N/A   Clear
5:38 PM 71.6 °F 51.8 °F 50% 29.70 in 10.0 mi SW 16.1 mph 24.2 mph N/A Thunderstorm Thunderstorm
5:53 PM 68.0 °F 50.0 °F 52% 29.72 in 10.0 mi SSW 17.3 mph - N/A Thunderstorm Clear
5:58 PM 67.8 °F 49.8 °F 52% 29.74 in 10.0 mi South 16.1 mph 24.2 mph 0.00 in Thunderstorm Clear
6:58 PM 69.8 °F 55.9 °F 61% 29.72 in 10.0 mi South 12.7 mph - N/A   Partly Cloudy
7:58 PM 70.5 °F 58.3 °F 65% 29.73 in 10.0 mi South 10.4 mph - N/A   Clear
8:58 PM 63.5 °F 57.7 °F 81% 29.73 in 10.0 mi SSE 8.1 mph - N/A   Scattered Clouds
9:58 PM 64.0 °F 56.1 °F 75% 29.76 in 10.0 mi Variable 6.9 mph - 0.00 in   Partly Cloudy
10:58 PM 58.6 °F 56.7 °F 93% 29.77 in 10.0 mi SSE 1.2 mph - N/A   Scattered Clouds
11:58 PM 60.4 °F 57.2 °F 89% 29.77 in 10.0 mi SW 8.1 mph - N/A   Scattered Clouds